RH
80 76 67 85 92 90 86 84 73 66 72 78 74 69 70 72 65 71 68 61 70 77 64 86 80 86 89 89 87 84 80 83 87
83 79 76 68 87 94 92 86 74 67 60 73 84 91 73 71 59 72 73 60 61 73 56 76 85 82 85 85 77 74 73 74 73
82 83 81 79 74 75 84 80 72 68 61 55 71 88 82 72 65 62 72 67 62 68 62 62 89 94 94 93 91 86 80 78 74
75 76 77 78 79 84 73 65 66 73 76 62 52 73 81 78 69 58 67 67 60 65 67 68 90 94 95 94 95 93 84 82 74
78 76 76 79 78 76 80 84 81 81 84 84 78 51 62 72 68 64 60 67 75 74 68 70 90 93 94 95 94 94 94 90 84
82 84 84 81 83 82 81 82 83 84 88 89 89 89 70 51 56 59 55 58 65 80 64 67 78 93 94 95 96 96 95 95 96
43 46 66 74 81 82 83 83 82 81 82 81 83 87 84 85 73 53 40 43 63 79 64 61 61 85 91 92 95 95 95 96 96
38 38 44 50 66 75 80 82 85 87 85 82 80 77 81 82 82 81 72 50 59 69 74 62 59 64 85 85 94 94 93 95 95
38 34 34 36 37 49 83 78 76 85 85 84 84 83 82 80 82 80 73 60 52 55 66 59 56 56 73 96 94 85 82 82 83
47 47 46 42 36 37 38 44 64 74 75 84 85 84 82 81 82 81 76 66 56 54 53 53 54 61 75 90 86 89 87 82 80
53 52 51 51 52 51 49 46 43 41 68 77 79 83 85 83 80 79 76 75 68 60 55 54 55 57 80 89 86 85 89 88 85
62 62 60 58 55 55 54 52 50 46 44 50 55 51 54 82 79 76 76 73 73 76 74 69 58 56 58 75 86 84 83 85 84
67 66 65 64 65 65 60 57 58 56 52 51 53 56 64 65 63 73 77 81 80 78 77 77 80 71 63 67 76 84 88 89 87
77 76 75 74 71 70 67 64 62 61 59 58 56 56 62 62 62 61 60 65 64 64 73 76 78 81 76 73 79 83 88 86 87
80 82 77 75 76 70 67 66 65 65 62 60 59 58 58 59 58 58 61 54 58 69 71 70 77 74 81 82 77 85 88 90 88
75 82 82 76 72 72 71 70 69 67 65 68 64 62 61 60 58 62 71 67 71 75 85 91 83 82 80 82 83 93 92 93 82
85 89 91 84 78 71 70 73 74 72 69 74 80 91 72 61 67 56 54 58 60 61 68 76 89 95 100 99 95 87 85 99 99
92 91 95 92 88 83 75 72 74 77 72 70 80 93 92 84 64 67 62 60 59 64 67 64 72 85 97 100 100 100 100 99 100
92 93 92 91 89 91 89 82 78 75 80 79 77 80 82 96 81 72 70 64 65 67 69 68 61 68 92 100 100 100 98 94 90
90 90 89 94 95 94 97 92 90 91 91 93 95 93 92 86 99 89 84 80 70 73 74 81 93 63 82 98 99 98 97 97 99
Wind_Speed
4 5 5 3 6 8 7 6 6 5 8 8 7 7 6 6 6 4 4 8 6 5 6 7 7 6 5 5 4 4 3 3 3
7 6 6 6 6 9 10 9 8 8 8 10 9 11 9 9 9 8 7 11 10 9 8 8 8 8 8 7 6 5 4 4 4
9 10 9 8 9 11 12 12 11 10 9 11 12 13 13 13 12 12 9 15 12 11 11 10 10 9 9 8 8 7 6 6 5
12 12 12 12 12 13 13 14 14 13 12 12 14 17 16 16 16 14 14 12 16 15 14 13 12 12 11 10 10 9 9 8 8
14 15 14 15 16 16 16 16 16 17 17 16 16 17 20 22 20 19 19 16 19 17 16 15 15 14 14 13 13 12 11 10 10
14 16 16 17 17 17 18 18 18 19 20 20 20 20 21 22 24 24 22 22 19 21 20 18 17 17 16 16 15 14 14 13 12
11 13 14 16 19 20 21 21 21 22 24 24 24 25 26 26 27 26 25 23 23 24 25 22 21 20 19 19 18 17 16 16 15
14 14 12 13 16 20 21 20 22 24 25 27 28 28 29 29 27 28 26 25 25 27 28 26 23 24 23 21 20 20 19 18 18
17 18 19 18 15 13 18 21 21 22 24 24 24 26 28 30 31 29 26 23 26 28 31 29 27 26 27 25 24 23 22 21 20
18 20 21 22 23 22 20 19 21 22 23 23 24 25 27 29 32 33 29 27 28 29 34 32 30 27 28 28 29 28 25 23 22
17 18 17 18 18 21 23 22 23 21 22 23 22 22 25 27 29 30 32 32 31 28 32 33 33 31 28 30 31 31 30 28 25
16 17 19 21 22 20 19 21 23 24 20 23 26 28 29 28 29 31 33 34 33 31 33 31 35 35 33 31 33 32 32 30 28
15 19 20 20 20 20 20 19 19 18 19 20 21 24 25 26 28 28 30 32 35 35 33 34 33 36 37 33 34 34 33 31 29
12 15 17 17 17 16 16 17 17 19 21 23 23 22 21 23 28 32 32 32 33 35 36 37 39 39 39 39 35 36 34 33 29
12 13 16 15 16 15 14 15 15 17 19 21 22 22 22 22 24 29 31 33 34 35 35 37 39 38 41 42 41 37 34 33 29
11 13 15 14 14 14 14 15 16 17 16 16 19 20 23 21 23 25 23 25 28 31 34 36 37 39 40 42 42 36 34 33 31
9 12 13 13 14 14 14 14 15 16 16 9 12 3 10 13 15 28 30 28 23 26 27 29 31 31 35 35 40 38 40 32 32
12 13 12 11 11 12 13 12 12 13 14 13 5 3 2 11 13 23 17 23 27 27 24 21 22 25 31 34 33 37 36 30 27
12 11 13 13 11 10 11 12 12 12 14 15 11 13 15 3 7 8 23 21 26 27 25 19 19 19 19 30 33 30 26 23 22
11 10 11 13 12 11 11 10 10 8 8 10 11 14 15 10 4 8 9 22 27 26 17 17 12 17 14 14 21 29 26 24 19
Wind_Direction
306 299 292 267 228 240 262 284 291 260 238 242 243 240 242 250 226 236 215 260 255 234 222 201 197 188 195 191 186 185 186 185 174
292 291 284 268 247 247 259 275 284 273 255 243 242 240 255 257 239 238 246 252 265 246 246 226 220 213 211 207 202 199 198 195 195
270 275 279 274 263 255 256 264 271 271 266 250 243 244 255 258 252 246 264 240 251 245 253 233 226 224 222 220 218 215 212 211 218
280 276 275 276 271 266 263 263 264 266 266 262 252 247 252 256 253 246 246 250 248 246 255 241 230 228 229 230 229 227 225 226 227
289 286 280 279 278 273 268 266 266 266 266 266 264 258 256 258 259 253 248 252 243 237 243 242 232 231 232 232 232 235 236 236 236
306 296 288 285 284 280 275 270 268 269 269 267 266 265 261 261 261 259 255 252 251 233 245 244 239 231 233 236 237 238 238 238 240
301 303 298 296 287 282 278 275 275 274 270 268 265 262 263 261 262 263 262 255 250 241 250 249 250 237 233 234 236 239 240 241 242
285 291 294 294 289 287 283 282 276 273 270 269 267 267 265 263 263 263 266 258 249 249 242 251 254 247 241 239 235 235 239 241 242
294 289 285 286 293 308 286 283 286 284 276 276 275 273 268 264 264 266 261 257 249 254 241 252 258 256 244 241 239 238 238 240 244
301 298 297 292 289 293 293 294 292 287 283 283 279 278 274 271 269 268 265 258 251 251 249 253 256 255 246 241 243 245 244 243 243
306 303 300 295 297 296 296 295 294 295 292 284 280 289 288 280 277 274 265 260 260 253 250 253 255 255 244 240 243 243 245 246 245
304 301 298 294 291 292 294 294 294 292 292 283 286 294 292 294 295 290 279 275 268 263 258 260 258 257 254 243 240 244 245 246 248
306 306 304 303 300 293 295 305 306 305 302 301 295 291 292 294 296 297 297 291 285 277 268 265 262 257 255 251 241 239 240 244 248
323 318 316 320 313 305 303 304 306 309 307 308 303 300 299 298 300 300 299 295 288 284 281 274 268 263 254 253 245 237 235 238 245
313 323 317 321 318 317 313 307 304 303 304 306 306 302 298 298 298 297 296 295 294 290 284 278 275 272 260 252 248 238 233 231 228
296 312 321 321 317 320 316 312 311 311 315 311 311 306 302 301 304 303 306 314 306 299 292 284 277 277 273 263 244 244 232 230 236
305 321 332 324 319 321 322 317 313 309 317 316 321 320 312 301 318 310 311 316 316 314 302 293 279 275 269 264 247 238 242 239 237
312 317 328 334 328 330 326 325 325 318 322 321 307 330 288 325 322 311 312 314 321 323 316 300 295 284 269 264 249 244 238 241 236
316 321 327 320 318 326 335 329 323 320 320 331 329 297 286 287 313 314 320 331 328 320 314 306 300 337 295 264 259 246 236 228 236
323 311 307 320 321 320 330 345 346 348 338 343 336 325 324 298 249 311 324 324 329 332 312 312 321 306 349 294 270 244 221 231 227